| time (UTC) | temp F | wind direction | speed knots | gust knots | rain 1hr in | rain 24hr in | rain mn in | humidity % | barometer mb |
| 20260505080126 | 45 | 310 | 0.9 | 1.7 | 0.00 | 0.00 | 0.00 | 65 | 1000.9 |
| 20260505074626 | 45 | 310 | 0.0 | 1.7 | 0.00 | 0.00 | 0.00 | 65 | 1001.0 |
| 20260505073126 | 45 | 310 | 0.9 | 1.7 | 0.00 | 0.00 | 0.00 | 65 | 1000.9 |
| 20260505071626 | 45 | 310 | 0.0 | 1.7 | 0.00 | 0.00 | 0.00 | 64 | 1000.8 |
| 20260505070126 | 45 | 310 | 0.0 | 0.9 | 0.00 | 0.00 | 0.00 | 63 | 1001.2 |
| 20260505064626 | 46 | 310 | 0.0 | 1.7 | 0.00 | 0.00 | 0.00 | 62 | 1001.0 |
| 20260505063126 | 46 | 310 | 0.9 | 2.6 | 0.00 | 0.00 | 0.00 | 61 | 1001.0 |
| 20260505061626 | 47 | 263 | 0.9 | 2.6 | 0.00 | 0.00 | 0.00 | 60 | 1000.7 |
| 20260505060126 | 47 | 263 | 0.9 | 2.6 | 0.00 | 0.00 | 0.00 | 59 | 1000.8 |
| 20260505054626 | 47 | 359 | 0.0 | 2.6 | 0.00 | 0.00 | 0.00 | 58 | 1000.7 |
| 20260505053126 | 48 | 317 | 0.9 | 3.5 | 0.00 | 0.00 | 0.00 | 57 | 1000.7 |
| 20260505051626 | 48 | 352 | 0.0 | 0.9 | 0.00 | 0.00 | 0.00 | 57 | 1000.7 |
| 20260505050126 | 48 | 352 | 0.0 | 1.7 | 0.00 | 0.00 | 0.00 | 56 | 1000.8 |
| 20260505041735 | 50 | 329 | 0.0 | 0.9 | 0.00 | 0.00 | 0.00 | 52 | 1000.7 |
| 20260505041626 | 50 | 329 | 0.0 | 0.9 | 0.00 | 0.00 | 0.00 | 52 | 1000.7 |
| 20260505040126 | 50 | 329 | 0.0 | 0.9 | 0.00 | 0.00 | 0.00 | 51 | 1000.7 |
| 20260505034626 | 51 | 329 | 0.9 | 3.5 | 0.00 | 0.00 | 0.00 | 50 | 1000.5 |
| 20260505033126 | 51 | 350 | 1.7 | 1.7 | 0.00 | 0.00 | 0.00 | 49 | 1000.2 |
| 20260505031626 | 51 | 349 | 0.0 | 0.9 | 0.00 | 0.00 | 0.00 | 49 | 999.8 |
| 20260505030126 | 52 | 349 | 0.9 | 2.6 | 0.00 | 0.00 | 0.00 | 47 | 999.4 |
| 20260505024702 | 53 | 310 | 0.9 | 1.7 | 0.00 | 0.00 | 0.00 | 45 | 999.3 |
| 20260505024626 | 53 | 310 | 0.9 | 1.7 | 0.00 | 0.00 | 0.00 | 45 | 999.3 |
| 20260505023126 | 54 | 310 | 1.7 | 2.6 | 0.00 | 0.00 | 0.00 | 44 | 998.8 |
| 20260505021626 | 55 | 327 | 1.7 | 3.5 | 0.00 | 0.00 | 0.00 | 43 | 998.8 |
| 20260505020126 | 55 | 320 | 1.7 | 2.6 | 0.00 | 0.00 | 0.00 | 43 | 998.5 |
| 20260505014626 | 56 | 287 | 2.6 | 7.0 | 0.00 | 0.00 | 0.00 | 42 | 998.2 |
| 20260505013126 | 57 | 311 | 2.6 | 3.5 | 0.00 | 0.00 | 0.00 | 42 | 998.3 |
| 20260505011626 | 57 | 15 | 1.7 | 4.3 | 0.00 | 0.00 | 0.00 | 42 | 998.3 |
| 20260505010126 | 57 | 340 | 3.5 | 5.2 | 0.00 | 0.00 | 0.00 | 41 | 998.3 |
| 20260505004627 | 58 | 307 | 3.5 | 7.0 | 0.00 | 0.00 | 0.00 | 39 | 998.3 |
| 20260505003127 | 58 | 291 | 3.5 | 7.8 | 0.00 | 0.00 | 0.00 | 40 | 998.2 |
| 20260505001627 | 58 | 268 | 5.2 | 11.3 | 0.00 | 0.00 | 0.00 | 41 | 998.3 |
| 20260505000127 | 58 | 273 | 6.1 | 11.3 | 0.00 | 0.00 | 0.00 | 42 | 998.5 |
| 20260504234627 | 58 | 333 | 6.1 | 12.2 | 0.00 | 0.00 | 0.00 | 43 | 998.8 |
| 20260504233127 | 58 | 340 | 6.1 | 14.8 | 0.00 | 0.00 | 0.00 | 43 | 998.7 |
| 20260504231627 | 58 | 330 | 7.8 | 13.9 | 0.00 | 0.00 | 0.00 | 42 | 998.5 |
| 20260504230127 | 58 | 351 | 9.6 | 17.4 | 0.00 | 0.00 | 0.00 | 41 | 998.4 |
| 20260504224627 | 59 | 333 | 7.8 | 16.5 | 0.00 | 0.00 | 0.00 | 38 | 998.0 |
| 20260504223127 | 59 | 347 | 3.5 | 11.3 | 0.00 | 0.00 | 0.00 | 38 | 997.9 |
| 20260504221627 | 59 | 338 | 4.3 | 10.4 | 0.00 | 0.00 | 0.00 | 42 | 998.2 |
| 20260504220127 | 58 | 330 | 6.1 | 11.3 | 0.00 | 0.00 | 0.00 | 44 | 998.3 |
| 20260504214627 | 57 | 327 | 8.7 | 14.8 | 0.00 | 0.00 | 0.00 | 45 | 998.8 |
| 20260504213127 | 60 | 343 | 8.7 | 19.1 | 0.00 | 0.00 | 0.00 | 39 | 998.9 |
| 20260504211627 | 62 | 326 | 6.1 | 11.3 | 0.00 | 0.00 | 0.00 | 33 | 998.6 |
| 20260504210127 | 62 | 271 | 7.0 | 15.6 | 0.00 | 0.00 | 0.00 | 33 | 998.6 |
| 20260504204627 | 62 | 337 | 3.5 | 12.2 | 0.00 | 0.00 | 0.00 | 32 | 998.8 |
| 20260504203127 | 64 | 320 | 3.5 | 6.1 | 0.00 | 0.00 | 0.00 | 32 | 999.0 |
| 20260504201627 | 62 | 328 | 4.3 | 7.8 | 0.00 | 0.00 | 0.00 | 35 | 999.2 |
| 20260504200127 | 60 | 318 | 6.1 | 10.4 | 0.00 | 0.00 | 0.00 | 37 | 999.4 |
| 20260504194627 | 60 | 261 | 5.2 | 13.0 | 0.00 | 0.00 | 0.00 | 36 | 999.5 |
| 20260504193127 | 61 | 280 | 1.7 | 7.0 | 0.00 | 0.00 | 0.00 | 33 | 999.3 |
| 20260504191627 | 60 | 334 | 3.5 | 8.7 | 0.00 | 0.00 | 0.00 | 34 | 999.5 |
| 20260504190127 | 60 | 66 | 3.5 | 7.8 | 0.00 | 0.00 | 0.00 | 39 | 999.7 |
| 20260504184627 | 59 | 255 | 3.5 | 5.2 | 0.00 | 0.00 | 0.00 | 41 | 1000.6 |
| 20260504183127 | 59 | 351 | 7.0 | 10.4 | 0.00 | 0.00 | 0.00 | 42 | 1001.0 |
| 20260504181627 | 56 | 326 | 10.4 | 15.6 | 0.00 | 0.00 | 0.00 | 45 | 1001.4 |
| 20260504180127 | 53 | 316 | 13.0 | 19.1 | 0.00 | 0.00 | 0.00 | 51 | 1001.6 |
| 20260504174627 | 58 | 241 | 7.0 | 20.0 | 0.00 | 0.00 | 0.00 | 40 | 1001.5 |
| 20260504173127 | 61 | 302 | 5.2 | 12.2 | 0.00 | 0.00 | 0.00 | 33 | 1000.6 |
| 20260504171627 | 62 | 305 | 4.3 | 12.2 | 0.00 | 0.00 | 0.00 | 33 | 1000.6 |
| 20260504170127 | 63 | 269 | 6.1 | 11.3 | 0.00 | 0.00 | 0.00 | 32 | 1001.0 |
| 20260504160127 | 59 | 7 | 2.6 | 5.2 | 0.00 | 0.00 | 0.00 | 38 | 1002.0 |
| 20260504150127 | 55 | 240 | 3.5 | 6.1 | 0.00 | 0.00 | 0.00 | 43 | 1003.4 |
| 20260504140128 | 52 | 311 | 2.6 | 5.2 | 0.00 | 0.00 | 0.00 | 49 | 1004.0 |
| 20260504130128 | 50 | 349 | 2.6 | 4.3 | 0.00 | 0.00 | 0.00 | 53 | 1003.7 |
| 20260504120128 | 48 | 302 | 2.6 | 4.3 | 0.00 | 0.00 | 0.00 | 54 | 1004.2 |
| 20260504110128 | 47 | 280 | 2.6 | 6.1 | 0.00 | 0.00 | 0.00 | 49 | 1004.3 |
| 20260504100128 | 41 | 323 | 1.7 | 7.0 | 0.00 | 0.00 | 0.00 | 58 | 1004.5 |
| 20260504090128 | 40 | 307 | 0.0 | 1.7 | 0.00 | 0.00 | 0.00 | 57 | 1005.2 |
| 20260504081628 | 40 | 307 | 0.0 | 0.9 | 0.00 | 0.00 | 0.00 | 56 | 1005.2 |